THOR ABLESTAR DEB, 159

Orbit data source: Space-Track

THOR ABLESTAR DEB, 159 is space debris in LEO originally from a launch on Thu, 29 Jun 1961 UTC launched from the Air Force Eastern Test Range (AFETR). Debris objects in space refer to the collection of defunct objects orbiting the Earth. Examples of debris include non-operational satellites, rocket bodies, and fragments generated from explosions, collisions, or faulty payload assembly.

Loading next visibility...
Identifier
159, 1961-015AV
Orbit
LEO
Country
Flag of USUS
Related business
Manufacturer
Unknown
Mission
Spacecraft
Bus & Motor
Unknown
Mass
Unknown
Launch date (UTC)
1961-06-29 (65 years ago)
Launch vehicle
Unknown
Launch site
Air Force Eastern Test Range (AFETR)
Object type
Payload
Rocket body
Debris
Shape & HBR
Unknown shape, 0.2 m
Radar Cross Section
Medium (>0.1 m² and <1 m²)

Expand to show TLE details & history
Last TLE update: 9 hours ago

TLE from 9 hours ago
0 THOR ABLESTAR DEB
1 00159U 61015AV  26072.48269215  .00000328  00000-0  91373-3 0  9991
2 00159  65.5244  86.1605 0369130 196.8884 161.9579 13.03031623 68380
Epoch: 2026-03-13T11:35Z
TLE epoch observation values (Epoch: 2026-03-13T11:35:04.601Z)
Latitude
-0.00001°
Longitude
101.27374°
Altitude
1,520.84 km
Speed
6.979 km/s
True Right ascension
05h 44m 38s
True Declination
0° 00' 00"
Sunlit
Object was in daylight at epoch
Visualization orbit readout
Latitude
Unknown
Longitude
Unknown
Altitude
Unknown
Speed
Unknown
Apparent Right ascension
Unknown
Apparent Declination
Unknown
Sunlit
N/A
Visualization observer readout
Local Sidereal Time
00:33:36
Azimuth
Unknown
Elevation
Unknown
Doppler factor
Unknown
Orbital elements
Apogee altitude
1,530.371 km
Perigee altitude
967.302 km
Semi-major axis
7,626.974 km
Eccentricity
0.03691
Inclination
65.5244°
RAAN
86.1605°
Arg. of periapsis
196.8884°
True anomaly
163.21273°
Mean anomaly
161.9579°
Eccentric anomaly
162.59069°
Mean motion
3.25848 °/min
Orbital period
110.48 mins
BSTAR
0.00091373
Loading maneuver chart data...
Computing Atmospheric mass density...

Documentation

Showing up to 5 results
|